Stations météo

réclame
Mon MeteoGroup
Topcliffe, Grande-Bretagne (3265): Température de l'air & dewpoint: 15.02.2019 18:00:00 - 21.02.2019 18:00:00 (GMT)Topcliffe, Grande-Bretagne (3265): Vitesse du vent & gusts: 15.02.2019 18:00:00 - 21.02.2019 18:00:00 (GMT)Topcliffe, Grande-Bretagne (3265): Direction du vent: 15.02.2019 18:00:00 - 21.02.2019 18:00:00 (GMT)Topcliffe, Grande-Bretagne (3265): reduced air pressure: 15.02.2019 18:00:00 - 21.02.2019 18:00:00 (GMT)Topcliffe, Grande-Bretagne (3265): visibility: 15.02.2019 18:00:00 - 21.02.2019 18:00:00 (GMT)Topcliffe, Grande-Bretagne (3265): Quantités de précipitations: 15.02.2019 18:00:00 - 21.02.2019 18:00:00 (GMT)
Date & Time tt [°C] td [°C] ff [km/h] ff [knt] fx [km/h] fx [knt] dd ppp [hPa] vv [km] rr [mm]
21.02.2019 18:00:00 6,3 3,6 4 2 - - NE 1025,8 15 0,0
21.02.2019 17:00:00 12,1 8,6 8 4 - - NNE 1025,1 45 0,0
21.02.2019 16:00:00 13,9 8,9 11 6 - - SSW 1024,5 40 0,0
21.02.2019 15:00:00 15,8 10,4 8 4 - - SW 1023,9 27 0,0
21.02.2019 14:00:00 14,9 9,8 13 7 - - SW 1023,4 40 0,0
21.02.2019 13:00:00 13,9 9,3 11 6 - - SW 1022,9 35 -
21.02.2019 12:00:00 - - - - - - - - - -
21.02.2019 11:00:00 - - - - - - - - - -
21.02.2019 10:00:00 13,1 10,3 8 4 - - SW 1021,3 45 0,0
21.02.2019 09:00:00 12,0 9,7 8 4 - - SSW 1020,7 45 0,0
21.02.2019 08:00:00 11,2 9,1 13 7 - - SW 1020,0 45 0,0
21.02.2019 07:00:00 10,6 8,8 11 6 - - SSW 1019,1 45 -
21.02.2019 06:00:00 - - - - - - - - - -
21.02.2019 05:00:00 - - - - - - - - - -
21.02.2019 04:00:00 10,2 8,3 9 5 - - SSE 1017,6 50 0,0
21.02.2019 03:00:00 10,3 8,1 9 5 - - SSE 1017,6 40 0,0
21.02.2019 02:00:00 10,4 8,1 13 7 - - S 1017,3 50 0,0
21.02.2019 01:00:00 - - - - - - - - - 0,0
21.02.2019 00:00:00 - - - - - - - - - -
20.02.2019 23:00:00 - - - - - - - - - -
20.02.2019 22:00:00 10,3 7,6 22 12 48 26 SSW 1015,7 35 0,0
20.02.2019 21:00:00 10,4 7,6 29 16 - - SW 1015,4 35 0,0
20.02.2019 20:00:00 9,7 7,5 28 15 - - SSW 1015,0 30 0,0
20.02.2019 19:00:00 10,1 7,3 21 11 - - S 1015,5 35 0,0
20.02.2019 18:00:00 9,7 7,1 21 11 - - S 1014,9 40 0,0
20.02.2019 17:00:00 - - - - - - - - - -
20.02.2019 16:00:00 - - - - - - - - - -
20.02.2019 15:00:00 - - - - - - - - - -
20.02.2019 14:00:00 - - - - - - - - - -
20.02.2019 13:00:00 - - - - - - - - - -
20.02.2019 12:00:00 - - - - - - - - - -
20.02.2019 11:00:00 - - - - - - - - - -
20.02.2019 10:00:00 - - - - - - - - - -
20.02.2019 09:00:00 - - - - - - - - - -
20.02.2019 08:00:00 - - - - - - - - - -
20.02.2019 07:00:00 - - - - - - - - - -
20.02.2019 06:00:00 - - - - - - - - - -
20.02.2019 05:00:00 - - - - - - - - - -
20.02.2019 04:00:00 - - - - - - - - - -
20.02.2019 03:00:00 - - - - - - - - - -
20.02.2019 02:00:00 - - - - - - - - - -
20.02.2019 01:00:00 - - - - - - - - - -
20.02.2019 00:00:00 - - - - - - - - - -
19.02.2019 23:00:00 - - - - - - - - - -
19.02.2019 22:00:00 - - - - - - - - - -
19.02.2019 21:00:00 - - - - - - - - - 0,0
19.02.2019 20:00:00 - - - - - - - - - 0,0
19.02.2019 19:00:00 - - - - - - - - - -
19.02.2019 18:00:00 - - - - - - - - - -
19.02.2019 17:00:00 - - - - - - - - - 0,0
19.02.2019 16:00:00 8,0 3,8 22 12 - - SW 1014,5 30 -
19.02.2019 15:00:00 8,5 3,6 16 9 - - SW 1014,8 45 0,0
19.02.2019 14:00:00 8,8 3,1 21 11 - - WSW 1015,0 35 0,0
19.02.2019 13:00:00 9,0 3,4 28 15 - - WSW 1015,1 45 0,0
19.02.2019 12:00:00 7,9 4,7 18 10 - - WSW 1015,0 40 0,0
19.02.2019 11:00:00 9,2 4,1 22 12 - - WSW 1014,6 30 0,0
19.02.2019 10:00:00 9,0 4,9 21 11 - - WSW 1014,3 45 0,0
19.02.2019 09:00:00 7,8 4,6 18 10 - - WSW 1013,8 30 0,0
19.02.2019 08:00:00 6,2 3,6 13 7 - - WSW 1013,3 30 0,0
19.02.2019 07:00:00 6,2 3,6 8 4 - - WSW 1012,9 45 0,0
19.02.2019 06:00:00 7,0 3,8 15 8 - - W 1012,3 45 0,0
19.02.2019 05:00:00 4,6 2,5 8 4 - - SSE 1011,8 50 0,0
19.02.2019 04:00:00 7,4 4,1 8 4 - - W 1011,2 50 0,0
19.02.2019 03:00:00 7,2 4,7 8 4 - - SSW 1010,9 45 0,0
19.02.2019 02:00:00 8,0 5,1 15 8 - - SW 1010,6 30 0,0
19.02.2019 01:00:00 8,0 5,3 22 12 - - WSW 1010,1 35 0,0
19.02.2019 00:00:00 8,0 5,4 18 10 - - WSW 1009,8 30 0,0
18.02.2019 23:00:00 7,6 5,3 21 11 - - WSW 1009,3 40 0,0
18.02.2019 22:00:00 7,6 4,8 18 10 - - SW 1009,4 30 0,0
18.02.2019 21:00:00 7,5 4,8 24 13 - - SW 1009,5 30 0,0
18.02.2019 20:00:00 7,5 4,5 22 12 50 27 WSW 1009,1 35 0,0
18.02.2019 19:00:00 8,4 3,9 18 10 46 25 SW 1009,2 45 0,0
18.02.2019 18:00:00 8,2 3,8 28 15 - - SW 1008,4 45 0,0
18.02.2019 17:00:00 8,0 3,8 29 16 50 27 SW 1008,3 50 0,0
18.02.2019 16:00:00 8,6 3,7 26 14 54 29 SW 1008,2 50 0,0
18.02.2019 15:00:00 10,6 2,6 34 18 52 28 SW 1007,5 30 0,0
18.02.2019 14:00:00 10,0 2,3 28 15 - - SW 1008,4 30 0,0
18.02.2019 13:00:00 10,4 4,3 24 13 - - SW 1008,7 35 0,0
18.02.2019 12:00:00 9,0 5,7 15 8 46 25 SW 1009,1 29 0,0
18.02.2019 11:00:00 8,4 3,9 28 15 - - WSW 1009,6 11 0,0
18.02.2019 10:00:00 9,6 5,3 28 15 - - SSW 1009,2 40 0,0
18.02.2019 09:00:00 6,9 4,8 16 9 - - S 1009,3 24 0,0
18.02.2019 08:00:00 5,5 4,5 16 9 - - ESE 1009,2 17 0,0
18.02.2019 07:00:00 5,8 4,1 15 8 - - SSE 1009,2 16 0,0
18.02.2019 06:00:00 5,1 3,8 15 8 - - SSE 1009,4 14 0,0
18.02.2019 05:00:00 4,7 3,7 15 8 - - SSE 1009,8 13 0,0
18.02.2019 04:00:00 6,2 4,6 21 11 - - SSE 1009,8 16 0,0
18.02.2019 03:00:00 6,9 4,8 22 12 - - SSE 1009,9 18 0,0
18.02.2019 02:00:00 7,2 5,0 22 12 - - SSE 1010,2 24 0,0
18.02.2019 01:00:00 7,8 5,3 24 13 - - SSE 1010,3 22 0,0
18.02.2019 00:00:00 8,3 4,6 18 10 - - SSE 1010,4 30 0,0
17.02.2019 23:00:00 8,2 3,9 22 12 - - S 1010,2 30 0,0
17.02.2019 22:00:00 4,5 3,0 18 10 - - SE 1010,9 30 0,0
17.02.2019 21:00:00 6,2 3,3 16 9 - - S 1010,6 35 0,0
17.02.2019 20:00:00 6,8 4,3 21 11 - - SSE 1010,2 30 0,0
17.02.2019 19:00:00 6,4 4,4 18 10 - - S 1009,8 30 0,0
17.02.2019 18:00:00 7,2 3,9 13 7 - - S 1009,5 30 0,0
17.02.2019 17:00:00 11,0 6,6 21 11 - - S 1009,0 35 0,0
17.02.2019 16:00:00 12,4 6,7 24 13 - - SSW 1008,8 40 0,0
17.02.2019 15:00:00 12,9 6,8 28 15 - - SSW 1008,9 35 0,0
17.02.2019 14:00:00 12,5 7,3 26 14 - - SSW 1008,7 29 0,0
17.02.2019 13:00:00 10,7 7,0 15 8 - - SE 1009,3 13 0,0
17.02.2019 12:00:00 9,6 6,7 22 12 - - SSE 1009,6 11 -
17.02.2019 11:00:00 9,0 6,9 24 13 - - SSE 1009,9 11 -
17.02.2019 10:00:00 8,4 7,1 22 12 - - SE 1010,0 9 0,0
17.02.2019 09:00:00 7,6 6,9 29 16 - - SE 1010,4 6 0,0
17.02.2019 08:00:00 7,1 6,7 22 12 - - ESE 1011,2 5 0,0
17.02.2019 07:00:00 7,0 6,3 29 16 - - SE 1011,7 9 0,0
17.02.2019 06:00:00 6,8 6,3 22 12 - - SE 1012,3 9 0,0
17.02.2019 05:00:00 6,3 5,7 16 9 - - SE 1012,8 9 0,0
17.02.2019 04:00:00 7,5 6,6 21 11 - - SE 1013,3 12 0,0
17.02.2019 03:00:00 7,3 6,3 21 11 - - ESE 1014,0 13 0,0
17.02.2019 02:00:00 8,6 7,4 21 11 - - ESE 1014,5 13 0,0
17.02.2019 01:00:00 9,1 7,9 18 10 - - SE 1014,7 16 0,0
17.02.2019 00:00:00 8,3 4,6 18 10 - - SSE 1010,4 30 0,0
16.02.2019 23:00:00 10,6 8,6 24 13 - - SSE 1015,6 18 0,0
16.02.2019 22:00:00 10,5 8,2 18 10 - - SSE 1016,1 20 0,0
16.02.2019 21:00:00 10,2 7,2 22 12 - - S 1016,3 30 0,0
16.02.2019 20:00:00 10,3 6,7 18 10 - - SSE 1016,5 40 0,0
16.02.2019 19:00:00 10,3 6,4 18 10 - - SE 1016,8 35 0,0
16.02.2019 18:00:00 10,3 6,2 16 9 - - S 1016,7 40 0,0
16.02.2019 17:00:00 9,6 4,6 16 9 - - S 1016,9 28 0,0
16.02.2019 16:00:00 12,4 5,2 21 11 - - SSW 1017,1 35 0,0
16.02.2019 15:00:00 12,2 4,8 26 14 - - SSW 1017,6 50 0,0
16.02.2019 14:00:00 12,7 4,6 26 14 - - SW 1018,0 30 0,0
16.02.2019 13:00:00 12,1 5,0 28 15 - - SW 1018,7 35 0,0
16.02.2019 12:00:00 11,6 5,3 18 10 - - WSW 1019,0 21 0,0
16.02.2019 11:00:00 11,7 6,2 26 14 - - SW 1018,6 35 0,0
16.02.2019 10:00:00 10,3 5,6 24 13 - - SW 1018,5 30 0,0
16.02.2019 09:00:00 8,9 5,8 21 11 - - SSW 1018,6 35 0,0
16.02.2019 08:00:00 8,6 5,8 15 8 - - SW 1018,2 25 0,0
16.02.2019 07:00:00 8,0 5,7 9 5 - - SSE 1017,9 26 0,0
16.02.2019 06:00:00 7,6 5,3 9 5 - - S 1017,7 15 0,0
16.02.2019 05:00:00 9,8 6,2 15 8 - - WSW 1017,6 22 0,0
16.02.2019 04:00:00 7,4 6,1 5 3 - - SSE 1017,2 18 0,0
16.02.2019 03:00:00 7,0 5,1 11 6 - - E 1016,8 11 0,0
16.02.2019 02:00:00 6,7 5,1 13 7 - - ESE 1016,8 13 0,0
16.02.2019 01:00:00 6,3 4,9 18 10 - - SE 1017,3 11 0,0
16.02.2019 00:00:00 5,0 4,6 13 7 - - SE 1017,8 12 0,0
15.02.2019 23:00:00 4,7 3,3 16 9 - - ESE 1018,1 10 0,0
15.02.2019 22:00:00 6,0 3,9 21 11 - - SSE 1018,6 15 0,0
15.02.2019 21:00:00 5,0 3,2 21 11 - - SE 1019,1 11 0,0
15.02.2019 20:00:00 5,2 3,5 18 10 - - SE 1019,6 10 0,0
15.02.2019 19:00:00 6,1 4,1 21 11 - - SSE 1020,0 11 0,0
15.02.2019 18:00:00 7,2 3,8 18 10 - - SE 1020,1 13 0,0

tt = Température de l'air
td = dewpoint
ff = Vitesse du vent
fx = gusts
dd = Direction du vent
ppp = reduced air pressure
vv = visibility
rr = Quantités de précipitations

stations d'obs. à proximité